This is the latest recevied weather packets stored in our database for station/object OE6JUE. If no packets are shown the sender has not sent any weather packets the latest 10 day(s).
| Time | Temp. | Humidity | Pressure | Rain* | Wind** | Luminosity | Snow |
|---|---|---|---|---|---|---|---|
| 1777566004 | 16.11° C | 22% | 1027 hPa | 0 mm | - | - | - |
| 1777565704 | 16.67° C | 22% | 1026.9 hPa | 0 mm | - | - | - |
| 1777565104 | 16.67° C | 22% | 1026.8 hPa | 0 mm | - | - | - |
| 1777563604 | 17.22° C | 22% | 1026.8 hPa | 0 mm | - | - | - |
| 1777563303 | 17.22° C | 22% | 1026.9 hPa | 0 mm | - | - | - |
| 1777562704 | 16.67° C | 22% | 1026.8 hPa | 0 mm | - | - | - |
| 1777561504 | 17.78° C | 21% | 1027 hPa | 0 mm | - | - | - |
| 1777560604 | 17.22° C | 22% | 1026.9 hPa | 0 mm | - | - | - |
| 1777557903 | 16.67° C | 22% | 1026.9 hPa | 0 mm | - | - | - |
| 1777556104 | 16.67° C | 22% | 1027.2 hPa | 0 mm | - | - | - |
| 1777555503 | 16.67° C | 22% | 1027.3 hPa | 0 mm | - | - | - |
| 1777554604 | 16.67° C | 22% | 1027.4 hPa | 0 mm | - | - | - |
| 1777554303 | 16.11° C | 22% | 1027.4 hPa | 0 mm | - | - | - |
| 1777553104 | 16.11° C | 22% | 1027.6 hPa | 0 mm | - | - | - |
| 1777550103 | 15.56° C | 22% | 1028.1 hPa | 0 mm | - | - | - |
| 1777548303 | 15° C | 22% | 1028.2 hPa | 0 mm | - | - | - |
| 1777548003 | 14.44° C | 22% | 1028.3 hPa | 0 mm | - | - | - |
| 1777545303 | 13.89° C | 22% | 1028.7 hPa | 0 mm | - | - | - |
| 1777545003 | 13.33° C | 22% | 1028.7 hPa | 0 mm | - | - | - |
| 1777544703 | 13.33° C | 22% | 1028.7 hPa | 0 mm | - | - | - |
| 1777544403 | 13.89° C | 22% | 1028.9 hPa | 0 mm | - | - | - |
| 1777544103 | 13.33° C | 22% | 1028.8 hPa | 0 mm | - | - | - |
| 1777543803 | 13.33° C | 22% | 1029 hPa | 0 mm | - | - | - |
| 1777543203 | 13.33° C | 22% | 1029.1 hPa | - | - | - | - |
| 1777542603 | 13.89° C | 22% | 1029.1 hPa | 0 mm | - | - | - |
* Rain latest hour (hover to see other rain measurements)
** Current wind speed in m/s (hover to see current wind gust speed)